Back to catalog

CZ-4B R/B

AliveSSO
NORAD 28059·ROCKET BODY·🇨🇳 China

Launched Oct 21, 2003 from Taiyuan Satellite Launch Center

Loading…

Next Passes (next 24 hours)

TLE

FreshSource: Space-Track

Epoch: Sep 13, 2026, 22:26 UTC

1 28059U 03049C   26256.93519809  .00000265  00000-0  72260-4 0  9999
2 28059  98.6955 259.3404 0048468  18.5960 341.6993 14.55150656213979

Track CZ-4B R/B in real time with AllMySat

Download on the App Store